,,,PA_Meas_PMT16A,,PR_Meas_QMR101_102,,RH_Meas_QMH101,,SR_Meas_QMS101,,TA_Meas_QMH101,,GenWind,,GenWind,
date,time,status,PA,status,PR,status,RH,status,SR,status,TA,status,DirAvg,status,SpdAvg,
2009-09-01, 00:00:05,VALID,1010.81,VALID,0,VALID,93.9417,VALID,0,VALID,23.4017,VALID,13,VALID,0.504297,
2009-09-01, 00:01:05,VALID,1010.81,VALID,0,VALID,93.9264,VALID,0,VALID,23.3823,VALID,12,VALID,0.296094,
2009-09-01, 00:02:05,VALID,1010.85,VALID,0,VALID,93.9417,VALID,0,VALID,23.3823,VALID,12,VALID,0.0816406,
2009-09-01, 00:03:05,VALID,1010.83,VALID,0,VALID,93.9417,VALID,0,VALID,23.3823,VALID,28,VALID,0.522656,
2009-09-01, 00:04:05,VALID,1010.84,VALID,0,VALID,93.9493,VALID,0,VALID,23.3628,VALID,28,VALID,0.295312,
2009-09-01, 00:05:05,VALID,1010.86,VALID,0,VALID,93.934,VALID,0,VALID,23.3628,VALID,28,VALID,0.367969,
2009-09-01, 00:06:05,VALID,1010.87,VALID,0,VALID,93.934,VALID,0,VALID,23.3628,VALID,28,VALID,0.317187,
2009-09-01, 00:07:05,VALID,1010.86,VALID,0,VALID,93.9645,VALID,0,VALID,23.3433,VALID,22,VALID,0.458594,
2009-09-01, 00:08:05,VALID,1010.87,VALID,0,VALID,93.9798,VALID,0,VALID,23.3433,VALID,7,VALID,0.529297,
2009-09-01, 00:09:05,VALID,1010.87,VALID,0,VALID,93.995,VALID,0,VALID,23.3645,VALID,328,VALID,0.550391,
2009-09-01, 00:10:05,VALID,1010.83,VALID,0,VALID,94.0255,VALID,0,VALID,23.384,VALID,320,VALID,0.642578,
2009-09-01, 00:11:05,VALID,1010.87,VALID,0,VALID,94.0332,VALID,0,VALID,23.3628,VALID,319,VALID,0.43125,
2009-09-01, 00:12:05,VALID,1010.83,VALID,0,VALID,94.056,VALID,0,VALID,23.384,VALID,321,VALID,0.527734,
2009-09-01, 00:13:05,VALID,1010.85,VALID,0,VALID,94.0408,VALID,0,VALID,23.384,VALID,321,VALID,0.0835937,
2009-09-01, 00:14:05,VALID,1010.85,VALID,0,VALID,94.0713,VALID,0,VALID,23.4035,VALID,307,VALID,0.285937,
2009-09-01, 00:15:05,VALID,1010.82,VALID,0,VALID,94.0637,VALID,0,VALID,23.3823,VALID,307,VALID,0.119531,
2009-09-01, 00:16:05,VALID,1010.8,VALID,0,VALID,94.0789,VALID,0,VALID,23.4035,VALID,307,VALID,0.20625,
2009-09-01, 00:17:05,VALID,1010.79,VALID,0,VALID,94.0942,VALID,0,VALID,23.3823,VALID,307,VALID,0.214453,
2009-09-01, 00:18:05,VALID,1010.78,VALID,0,VALID,94.0637,VALID,0,VALID,23.3628,VALID,307,VALID,0.123828,
2009-09-01, 00:19:05,VALID,1010.78,VALID,0,VALID,94.056,VALID,0,VALID,23.3628,VALID,307,VALID,0.142578,
2009-09-01, 00:20:05,VALID,1010.76,VALID,0,VALID,94.0789,VALID,0,VALID,23.3433,VALID,308,VALID,0.314453,
2009-09-01, 00:21:05,VALID,1010.7,VALID,0,VALID,94.0713,VALID,0,VALID,23.3451,VALID,308,VALID,0,
2009-09-01, 00:22:05,VALID,1010.68,VALID,0,VALID,94.0713,VALID,0.105969,VALID,23.3415,VALID,308,VALID,0,
2009-09-01, 00:23:05,VALID,1010.64,VALID,0,VALID,94.0637,VALID,0.105969,VALID,23.322,VALID,308,VALID,0,
2009-09-01, 00:24:05,VALID,1010.62,VALID,0,VALID,94.0789,VALID,0,VALID,23.322,VALID,308,VALID,0,
2009-09-01, 00:25:05,VALID,1010.6,VALID,0,VALID,94.0789,VALID,0.105969,VALID,23.3415,VALID,308,VALID,0,
2009-09-01, 00:26:05,VALID,1010.58,VALID,0,VALID,94.0865,VALID,0.105969,VALID,23.322,VALID,308,VALID,0.273828,
2009-09-01, 00:27:05,VALID,1010.6,VALID,0,VALID,94.1018,VALID,0.105969,VALID,23.3415,VALID,308,VALID,0.127344,
2009-09-01, 00:28:05,VALID,1010.62,VALID,0,VALID,94.0865,VALID,0.105969,VALID,23.322,VALID,308,VALID,0,
2009-09-01, 00:29:05,VALID,1010.6,VALID,0,VALID,94.1094,VALID,0,VALID,23.322,VALID,230,VALID,0.428125,
2009-09-01, 00:30:05,VALID,1010.62,VALID,0,VALID,94.0865,VALID,0.105969,VALID,23.322,VALID,221,VALID,0.18125,
2009-09-01, 00:31:05,VALID,1010.65,VALID,0,VALID,94.0942,VALID,0.105969,VALID,23.3026,VALID,221,VALID,0,
2009-09-01, 00:32:05,VALID,1010.63,VALID,0,VALID,94.1171,VALID,0,VALID,23.3026,VALID,221,VALID,0,
2009-09-01, 00:33:04,VALID,1010.63,VALID,0,VALID,94.1094,VALID,0.105969,VALID,23.3238,VALID,221,VALID,0.00117188,
2009-09-01, 00:34:04,VALID,1010.61,VALID,0,VALID,94.1018,VALID,0,VALID,23.2831,VALID,222,VALID,0.43125,
2009-09-01, 00:35:04,VALID,1010.59,VALID,0,VALID,94.1094,VALID,0.105969,VALID,23.3238,VALID,221,VALID,0.508203,
2009-09-01, 00:36:04,VALID,1010.57,VALID,0,VALID,94.1323,VALID,0.105969,VALID,23.3026,VALID,222,VALID,0.40625,
2009-09-01, 00:37:04,VALID,1010.53,VALID,0,VALID,94.1247,VALID,0,VALID,23.3043,VALID,333,VALID,0.44375,
2009-09-01, 00:38:04,VALID,1010.53,VALID,0,VALID,94.1171,VALID,0,VALID,23.2848,VALID,333,VALID,0.3125,
2009-09-01, 00:39:04,VALID,1010.52,VALID,0,VALID,94.1171,VALID,0,VALID,23.2654,VALID,328,VALID,0.414844,
2009-09-01, 00:40:04,VALID,1010.45,VALID,0,VALID,94.1323,VALID,0,VALID,23.2654,VALID,328,VALID,0.302734,
2009-09-01, 00:41:04,VALID,1010.44,VALID,0,VALID,94.1399,VALID,0,VALID,23.2654,VALID,338,VALID,0.406641,
2009-09-01, 00:42:04,VALID,1010.41,VALID,0,VALID,94.1552,VALID,0,VALID,23.2848,VALID,352,VALID,0.385547,
2009-09-01, 00:43:04,VALID,1010.39,VALID,0,VALID,94.1628,VALID,0,VALID,23.2654,VALID,352,VALID,0.116406,
2009-09-01, 00:44:04,VALID,1010.38,VALID,0,VALID,94.1781,VALID,0,VALID,23.2654,VALID,352,VALID,0.0917969,
2009-09-01, 00:45:04,VALID,1010.4,VALID,0,VALID,94.1857,VALID,0,VALID,23.2654,VALID,352,VALID,0.319922,
2009-09-01, 00:46:04,VALID,1010.39,VALID,0,VALID,94.1857,VALID,0,VALID,23.2654,VALID,352,VALID,0.208203,
2009-09-01, 00:47:04,VALID,1010.38,VALID,0,VALID,94.2086,VALID,0,VALID,23.2459,VALID,352,VALID,0,
2009-09-01, 00:48:04,VALID,1010.36,VALID,0,VALID,94.2009,VALID,0,VALID,23.2866,VALID,352,VALID,0,
2009-09-01, 00:49:04,VALID,1010.35,VALID,0,VALID,94.1933,VALID,0,VALID,23.2459,VALID,352,VALID,0,
2009-09-01, 00:50:04,VALID,1010.34,VALID,0,VALID,94.2162,VALID,0,VALID,23.2459,VALID,352,VALID,0,
2009-09-01, 00:51:04,VALID,1010.29,VALID,0,VALID,94.2009,VALID,0,VALID,23.2476,VALID,352,VALID,0,
2009-09-01, 00:52:04,VALID,1010.27,VALID,0,VALID,94.2238,VALID,0,VALID,23.2459,VALID,352,VALID,0,
2009-09-01, 00:53:04,VALID,1010.29,VALID,0,VALID,94.2009,VALID,0,VALID,23.2264,VALID,352,VALID,0,
2009-09-01, 00:54:04,VALID,1010.28,VALID,0,VALID,94.2086,VALID,0,VALID,23.2069,VALID,352,VALID,0,
2009-09-01, 00:55:04,VALID,1010.3,VALID,0,VALID,94.2086,VALID,0,VALID,23.2069,VALID,352,VALID,0,
2009-09-01, 00:56:04,VALID,1010.28,VALID,0,VALID,94.2086,VALID,0,VALID,23.2264,VALID,352,VALID,0,
2009-09-01, 00:57:04,VALID,1010.26,VALID,0,VALID,94.2238,VALID,0,VALID,23.2264,VALID,352,VALID,0,
2009-09-01, 00:58:04,VALID,1010.28,VALID,0,VALID,94.2238,VALID,0,VALID,23.2051,VALID,352,VALID,0,
2009-09-01, 00:59:04,VALID,1010.28,VALID,0,VALID,94.2314,VALID,0,VALID,23.2264,VALID,352,VALID,0,
2009-09-01, 01:00:04,VALID,1010.24,VALID,0,VALID,94.2391,VALID,0,VALID,23.2264,VALID,352,VALID,0,
2009-09-01, 01:01:04,VALID,1010.22,VALID,0,VALID,94.2391,VALID,0,VALID,23.2069,VALID,352,VALID,0,
2009-09-01, 01:02:04,VALID,1010.21,VALID,0,VALID,94.2314,VALID,0,VALID,23.2069,VALID,352,VALID,0,
2009-09-01, 01:03:04,VALID,1010.22,VALID,0,VALID,94.2543,VALID,0,VALID,23.2069,VALID,352,VALID,0,
2009-09-01, 01:04:04,VALID,1010.17,VALID,0,VALID,94.2543,VALID,0,VALID,23.1874,VALID,352,VALID,0,
2009-09-01, 01:05:04,VALID,1010.17,VALID,0,VALID,94.2543,VALID,0,VALID,23.1485,VALID,352,VALID,0,
2009-09-01, 01:06:04,VALID,1010.16,VALID,0,VALID,94.2543,VALID,0,VALID,23.1485,VALID,352,VALID,0,
2009-09-01, 01:07:04,VALID,1010.16,VALID,0,VALID,94.2391,VALID,0,VALID,23.1485,VALID,352,VALID,0,
2009-09-01, 01:08:04,VALID,1010.16,VALID,0,VALID,94.2619,VALID,0,VALID,23.1679,VALID,352,VALID,0,
2009-09-01, 01:09:04,VALID,1010.15,VALID,0,VALID,94.2391,VALID,0,VALID,23.1679,VALID,352,VALID,0,
2009-09-01, 01:10:04,VALID,1010.15,VALID,0,VALID,94.2772,VALID,0,VALID,23.1874,VALID,352,VALID,0,
2009-09-01, 01:11:04,VALID,1010.16,VALID,0,VALID,94.3001,VALID,0,VALID,23.1892,VALID,352,VALID,0,
2009-09-01, 01:12:04,VALID,1010.17,VALID,0,VALID,94.3001,VALID,0,VALID,23.1679,VALID,352,VALID,0,
2009-09-01, 01:13:04,VALID,1010.19,VALID,0,VALID,94.3001,VALID,0,VALID,23.1679,VALID,352,VALID,0,
2009-09-01, 01:14:04,VALID,1010.17,VALID,0,VALID,94.3153,VALID,0,VALID,23.1892,VALID,352,VALID,0,
2009-09-01, 01:15:04,VALID,1010.18,VALID,0,VALID,94.3077,VALID,0,VALID,23.1697,VALID,352,VALID,0,
2009-09-01, 01:16:04,VALID,1010.17,VALID,0,VALID,94.3306,VALID,0,VALID,23.1485,VALID,352,VALID,0,
2009-09-01, 01:17:04,VALID,1010.17,VALID,0,VALID,94.3306,VALID,0,VALID,23.1502,VALID,352,VALID,0,
2009-09-01, 01:18:04,VALID,1010.19,VALID,0,VALID,94.3306,VALID,0,VALID,23.129,VALID,352,VALID,0,
2009-09-01, 01:19:04,VALID,1010.17,VALID,0,VALID,94.3306,VALID,0,VALID,23.129,VALID,352,VALID,0,
2009-09-01, 01:20:04,VALID,1010.19,VALID,0,VALID,94.3382,VALID,0,VALID,23.129,VALID,352,VALID,0,
2009-09-01, 01:21:04,VALID,1010.17,VALID,0,VALID,94.3611,VALID,0,VALID,23.129,VALID,352,VALID,0,
2009-09-01, 01:22:04,VALID,1010.18,VALID,0,VALID,94.3306,VALID,0.105969,VALID,23.1272,VALID,352,VALID,0,
2009-09-01, 01:23:04,VALID,1010.22,VALID,0,VALID,94.3534,VALID,0,VALID,23.1485,VALID,352,VALID,0,
2009-09-01, 01:24:04,VALID,1010.21,VALID,0,VALID,94.3534,VALID,0.105969,VALID,23.1467,VALID,352,VALID,0,
2009-09-01, 01:25:04,VALID,1010.2,VALID,0,VALID,94.3534,VALID,0.105969,VALID,23.1467,VALID,352,VALID,0,
2009-09-01, 01:26:04,VALID,1010.19,VALID,0,VALID,94.3382,VALID,0.105969,VALID,23.1467,VALID,352,VALID,0,
2009-09-01, 01:27:04,VALID,1010.15,VALID,0,VALID,94.3839,VALID,0.105969,VALID,23.1467,VALID,352,VALID,0,
2009-09-01, 01:28:04,VALID,1010.17,VALID,0,VALID,94.3763,VALID,0.105969,VALID,23.1662,VALID,352,VALID,0,
2009-09-01, 01:29:04,VALID,1010.15,VALID,0,VALID,94.3839,VALID,0.105969,VALID,23.1662,VALID,352,VALID,0,
2009-09-01, 01:30:04,VALID,1010.13,VALID,0,VALID,94.3763,VALID,0.105969,VALID,23.1662,VALID,352,VALID,0,
2009-09-01, 01:31:04,VALID,1010.14,VALID,0,VALID,94.3916,VALID,0.105969,VALID,23.1467,VALID,352,VALID,0,
2009-09-01, 01:32:04,VALID,1010.15,VALID,0,VALID,94.3763,VALID,0.105969,VALID,23.1679,VALID,352,VALID,0,
2009-09-01, 01:33:04,VALID,1010.17,VALID,0,VALID,94.3763,VALID,0.105969,VALID,23.1467,VALID,352,VALID,0,
2009-09-01, 01:34:04,VALID,1010.2,VALID,0,VALID,94.4068,VALID,0.105969,VALID,23.1272,VALID,352,VALID,0,
2009-09-01, 01:35:04,VALID,1010.21,VALID,0,VALID,94.3916,VALID,0.105969,VALID,23.1077,VALID,352,VALID,0,
2009-09-01, 01:36:04,VALID,1010.21,VALID,0,VALID,94.3839,VALID,0.105969,VALID,23.1077,VALID,352,VALID,0,
2009-09-01, 01:37:04,VALID,1010.22,VALID,0,VALID,94.4068,VALID,0,VALID,23.0883,VALID,352,VALID,0,
2009-09-01, 01:38:04,VALID,1010.23,VALID,0,VALID,94.4145,VALID,0,VALID,23.09,VALID,352,VALID,0,
2009-09-01, 01:39:04,VALID,1010.21,VALID,0,VALID,94.3992,VALID,0,VALID,23.09,VALID,352,VALID,0,
2009-09-01, 01:40:04,VALID,1010.2,VALID,0,VALID,94.3992,VALID,0,VALID,23.0918,VALID,352,VALID,0,
2009-09-01, 01:41:04,VALID,1010.2,VALID,0,VALID,94.3916,VALID,0,VALID,23.09,VALID,352,VALID,0,
2009-09-01, 01:42:04,VALID,1010.22,VALID,0,VALID,94.3992,VALID,0,VALID,23.09,VALID,352,VALID,0,
2009-09-01, 01:43:04,VALID,1010.21,VALID,0,VALID,94.3992,VALID,0,VALID,23.09,VALID,352,VALID,0,
2009-09-01, 01:44:04,VALID,1010.22,VALID,0,VALID,94.3916,VALID,0,VALID,23.0918,VALID,352,VALID,0,
2009-09-01, 01:45:04,VALID,1010.2,VALID,0,VALID,94.4068,VALID,0,VALID,23.0705,VALID,352,VALID,0,
2009-09-01, 01:46:04,VALID,1010.19,VALID,0,VALID,94.4068,VALID,0,VALID,23.0705,VALID,352,VALID,0,
2009-09-01, 01:47:04,VALID,1010.13,VALID,0,VALID,94.3916,VALID,0,VALID,23.09,VALID,352,VALID,0,
2009-09-01, 01:48:04,VALID,1010.14,VALID,0,VALID,94.4221,VALID,0,VALID,23.09,VALID,352,VALID,0,
2009-09-01, 01:49:04,VALID,1010.11,VALID,0,VALID,94.4145,VALID,0,VALID,23.1095,VALID,352,VALID,0,
2009-09-01, 01:50:04,VALID,1010.1,VALID,0,VALID,94.4145,VALID,0,VALID,23.09,VALID,352,VALID,0,
2009-09-01, 01:51:04,VALID,1010.1,VALID,0,VALID,94.4068,VALID,0,VALID,23.0705,VALID,352,VALID,0,
2009-09-01, 01:52:04,VALID,1010.09,VALID,0,VALID,94.4145,VALID,0,VALID,23.0511,VALID,352,VALID,0,
2009-09-01, 01:53:04,VALID,1010.12,VALID,0,VALID,94.4145,VALID,0,VALID,23.0511,VALID,352,VALID,0,
2009-09-01, 01:54:04,VALID,1010.1,VALID,0,VALID,94.4068,VALID,0,VALID,23.0705,VALID,352,VALID,0,
2009-09-01, 01:55:04,VALID,1010.11,VALID,0,VALID,94.4145,VALID,0,VALID,23.0705,VALID,352,VALID,0,
2009-09-01, 01:56:04,VALID,1010.08,VALID,0,VALID,94.3992,VALID,0.105969,VALID,23.0705,VALID,352,VALID,0,
2009-09-01, 01:57:04,VALID,1010.09,VALID,0,VALID,94.3839,VALID,0,VALID,23.0705,VALID,352,VALID,0,
2009-09-01, 01:58:04,VALID,1010.07,VALID,0,VALID,94.3992,VALID,0,VALID,23.0511,VALID,352,VALID,0,
2009-09-01, 01:59:04,VALID,1010.03,VALID,0,VALID,94.4221,VALID,0,VALID,23.0316,VALID,352,VALID,0,
2009-09-01, 02:00:04,VALID,1010,VALID,0,VALID,94.4297,VALID,0,VALID,23.0121,VALID,352,VALID,0,
2009-09-01, 02:01:04,VALID,1010.03,VALID,0,VALID,94.4145,VALID,0,VALID,23.0103,VALID,352,VALID,0,
2009-09-01, 02:02:04,VALID,1009.99,VALID,0,VALID,94.4221,VALID,0,VALID,22.9926,VALID,352,VALID,0,
2009-09-01, 02:03:04,VALID,1009.99,VALID,0,VALID,94.3992,VALID,0,VALID,23.0121,VALID,352,VALID,0,
2009-09-01, 02:04:04,VALID,1009.98,VALID,0,VALID,94.4297,VALID,0,VALID,23.0121,VALID,352,VALID,0,
2009-09-01, 02:05:04,VALID,1009.94,VALID,0,VALID,94.4068,VALID,0,VALID,22.9926,VALID,352,VALID,0,
2009-09-01, 02:06:04,VALID,1009.96,VALID,0,VALID,94.4221,VALID,0,VALID,22.9731,VALID,352,VALID,0,
2009-09-01, 02:07:04,VALID,1009.94,VALID,0,VALID,94.4145,VALID,0,VALID,22.9731,VALID,352,VALID,0,
2009-09-01, 02:08:04,VALID,1009.95,VALID,0,VALID,94.4145,VALID,0,VALID,22.9536,VALID,352,VALID,0,
2009-09-01, 02:09:04,VALID,1009.96,VALID,0,VALID,94.4221,VALID,0,VALID,22.9324,VALID,352,VALID,0,
2009-09-01, 02:10:04,VALID,1009.94,VALID,0,VALID,94.4068,VALID,0,VALID,22.9536,VALID,352,VALID,0,
2009-09-01, 02:11:04,VALID,1009.95,VALID,0,VALID,94.3992,VALID,0,VALID,22.9731,VALID,352,VALID,0,
2009-09-01, 02:12:04,VALID,1009.96,VALID,0,VALID,94.4221,VALID,0,VALID,23.0138,VALID,352,VALID,0,
2009-09-01, 02:13:04,VALID,1009.94,VALID,0,VALID,94.3992,VALID,0,VALID,22.9926,VALID,352,VALID,0,
2009-09-01, 02:14:04,VALID,1009.94,VALID,0,VALID,94.3992,VALID,0,VALID,22.9909,VALID,352,VALID,0,
2009-09-01, 02:15:04,VALID,1009.95,VALID,0,VALID,94.4068,VALID,0,VALID,23.0316,VALID,352,VALID,0,
2009-09-01, 02:16:04,VALID,1009.96,VALID,0,VALID,94.3992,VALID,0,VALID,23.0511,VALID,352,VALID,0,
2009-09-01, 02:17:04,VALID,1009.97,VALID,0,VALID,94.4145,VALID,0,VALID,23.0511,VALID,352,VALID,0,
2009-09-01, 02:18:04,VALID,1009.95,VALID,0,VALID,94.4221,VALID,0,VALID,23.0511,VALID,352,VALID,0,
2009-09-01, 02:19:04,VALID,1009.95,VALID,0,VALID,94.4297,VALID,0,VALID,23.0316,VALID,352,VALID,0,
2009-09-01, 02:20:04,VALID,1009.91,VALID,0,VALID,94.445,VALID,0,VALID,23.0121,VALID,352,VALID,0,
2009-09-01, 02:21:04,VALID,1009.92,VALID,0,VALID,94.4221,VALID,0,VALID,23.0121,VALID,352,VALID,0,
2009-09-01, 02:22:04,VALID,1009.92,VALID,0,VALID,94.4526,VALID,0,VALID,22.9536,VALID,352,VALID,0,
2009-09-01, 02:23:04,VALID,1009.86,VALID,0,VALID,94.4526,VALID,0,VALID,22.9554,VALID,352,VALID,0,
2009-09-01, 02:24:04,VALID,1009.86,VALID,0,VALID,94.4297,VALID,0,VALID,22.9147,VALID,352,VALID,0,
2009-09-01, 02:25:04,VALID,1009.83,VALID,0,VALID,94.4373,VALID,0,VALID,22.8969,VALID,352,VALID,0,
2009-09-01, 02:26:04,VALID,1009.83,VALID,0,VALID,94.4145,VALID,0,VALID,22.8952,VALID,352,VALID,0,
2009-09-01, 02:27:04,VALID,1009.84,VALID,0,VALID,94.3839,VALID,0,VALID,22.9342,VALID,352,VALID,0,
2009-09-01, 02:28:04,VALID,1009.85,VALID,0,VALID,94.4068,VALID,0,VALID,22.9536,VALID,352,VALID,0,
2009-09-01, 02:29:04,VALID,1009.82,VALID,0,VALID,94.4297,VALID,0,VALID,22.9536,VALID,352,VALID,0,
2009-09-01, 02:30:04,VALID,1009.83,VALID,0,VALID,94.4373,VALID,0,VALID,22.9749,VALID,352,VALID,0,
2009-09-01, 02:31:04,VALID,1009.86,VALID,0,VALID,94.4373,VALID,0,VALID,22.9536,VALID,352,VALID,0,
2009-09-01, 02:32:04,VALID,1009.86,VALID,0,VALID,94.4373,VALID,0,VALID,22.9147,VALID,352,VALID,0,
2009-09-01, 02:33:04,VALID,1009.86,VALID,0,VALID,94.4602,VALID,0,VALID,22.8952,VALID,352,VALID,0,
2009-09-01, 02:34:04,VALID,1009.88,VALID,0,VALID,94.4221,VALID,0,VALID,22.8757,VALID,352,VALID,0,
2009-09-01, 02:35:04,VALID,1009.9,VALID,0,VALID,94.4373,VALID,0,VALID,22.8757,VALID,352,VALID,0,
2009-09-01, 02:36:04,VALID,1009.87,VALID,0,VALID,94.4297,VALID,0,VALID,22.8969,VALID,352,VALID,0,
2009-09-01, 02:37:04,VALID,1009.87,VALID,0,VALID,94.4373,VALID,0,VALID,22.8775,VALID,352,VALID,0,
2009-09-01, 02:38:04,VALID,1009.87,VALID,0,VALID,94.445,VALID,0,VALID,22.8969,VALID,352,VALID,0,
2009-09-01, 02:39:04,VALID,1009.86,VALID,0,VALID,94.4373,VALID,0,VALID,22.8757,VALID,352,VALID,0,
2009-09-01, 02:40:04,VALID,1009.85,VALID,0,VALID,94.4678,VALID,0,VALID,22.8562,VALID,352,VALID,0,
2009-09-01, 02:41:04,VALID,1009.81,VALID,0,VALID,94.445,VALID,0,VALID,22.8775,VALID,55,VALID,0,
2009-09-01, 02:42:04,VALID,1009.79,VALID,0,VALID,94.4373,VALID,0,VALID,22.8757,VALID,55,VALID,0,
2009-09-01, 02:43:04,VALID,1009.78,VALID,0,VALID,94.4373,VALID,0,VALID,22.8757,VALID,55,VALID,0,
2009-09-01, 02:44:04,VALID,1009.79,VALID,0,VALID,94.445,VALID,0,VALID,22.9164,VALID,55,VALID,0,
2009-09-01, 02:45:04,VALID,1009.78,VALID,0,VALID,94.445,VALID,0,VALID,22.9342,VALID,55,VALID,0,
2009-09-01, 02:46:04,VALID,1009.75,VALID,0,VALID,94.4526,VALID,0,VALID,22.9554,VALID,55,VALID,0,
2009-09-01, 02:47:04,VALID,1009.77,VALID,0,VALID,94.4373,VALID,0,VALID,22.9536,VALID,55,VALID,0,
2009-09-01, 02:48:04,VALID,1009.76,VALID,0,VALID,94.4373,VALID,0,VALID,22.9731,VALID,55,VALID,0,
2009-09-01, 02:49:04,VALID,1009.76,VALID,0,VALID,94.4678,VALID,0,VALID,22.9731,VALID,55,VALID,0,
2009-09-01, 02:50:04,VALID,1009.73,VALID,0,VALID,94.4678,VALID,0,VALID,22.9536,VALID,55,VALID,0,
2009-09-01, 02:51:04,VALID,1009.74,VALID,0,VALID,94.4831,VALID,0,VALID,22.9342,VALID,10,VALID,0,
2009-09-01, 02:52:04,VALID,1009.74,VALID,0,VALID,94.4755,VALID,0,VALID,22.9342,VALID,7,VALID,0,
2009-09-01, 02:53:04,VALID,1009.77,VALID,0,VALID,94.4755,VALID,0,VALID,22.9147,VALID,7,VALID,0,
2009-09-01, 02:54:04,VALID,1009.76,VALID,0,VALID,94.4755,VALID,0,VALID,22.9164,VALID,7,VALID,0,
2009-09-01, 02:55:04,VALID,1009.78,VALID,0,VALID,94.445,VALID,0,VALID,22.8952,VALID,7,VALID,0,
2009-09-01, 02:56:04,VALID,1009.8,VALID,0,VALID,94.4602,VALID,0,VALID,22.9164,VALID,7,VALID,0,
2009-09-01, 02:57:04,VALID,1009.79,VALID,0,VALID,94.4831,VALID,0,VALID,22.8757,VALID,7,VALID,0,
2009-09-01, 02:58:04,VALID,1009.8,VALID,0,VALID,94.4755,VALID,0,VALID,22.8757,VALID,7,VALID,0,
2009-09-01, 02:59:04,VALID,1009.78,VALID,0,VALID,94.4755,VALID,0,VALID,22.8757,VALID,7,VALID,0,
2009-09-01, 03:00:04,VALID,1009.77,VALID,0,VALID,94.4526,VALID,0,VALID,22.8952,VALID,7,VALID,0,
2009-09-01, 03:01:04,VALID,1009.78,VALID,0,VALID,94.445,VALID,0,VALID,22.9164,VALID,7,VALID,0,
2009-09-01, 03:02:04,VALID,1009.79,VALID,0,VALID,94.4602,VALID,0,VALID,22.8952,VALID,7,VALID,0,
2009-09-01, 03:03:04,VALID,1009.77,VALID,0,VALID,94.4526,VALID,0,VALID,22.9359,VALID,7,VALID,0,
2009-09-01, 03:04:04,VALID,1009.79,VALID,0,VALID,94.506,VALID,0,VALID,22.8952,VALID,7,VALID,0,
2009-09-01, 03:05:04,VALID,1009.8,VALID,0,VALID,94.4831,VALID,0,VALID,22.8757,VALID,7,VALID,0,
2009-09-01, 03:06:04,VALID,1009.77,VALID,0,VALID,94.4907,VALID,0,VALID,22.8173,VALID,7,VALID,0,
2009-09-01, 03:07:04,VALID,1009.77,VALID,0,VALID,94.506,VALID,0,VALID,22.8173,VALID,7,VALID,0,
2009-09-01, 03:08:04,VALID,1009.78,VALID,0,VALID,94.4678,VALID,0,VALID,22.7978,VALID,7,VALID,0,
2009-09-01, 03:09:04,VALID,1009.77,VALID,0,VALID,94.4678,VALID,0,VALID,22.7978,VALID,7,VALID,0,
2009-09-01, 03:10:04,VALID,1009.79,VALID,0,VALID,94.4755,VALID,0,VALID,22.7978,VALID,7,VALID,0,
2009-09-01, 03:11:04,VALID,1009.79,VALID,0,VALID,94.445,VALID,0,VALID,22.7783,VALID,7,VALID,0,
2009-09-01, 03:12:04,VALID,1009.78,VALID,0,VALID,94.4526,VALID,0,VALID,22.7978,VALID,7,VALID,0,
2009-09-01, 03:13:04,VALID,1009.78,VALID,0,VALID,94.4831,VALID,0,VALID,22.7978,VALID,7,VALID,0,
2009-09-01, 03:14:04,VALID,1009.76,VALID,0,VALID,94.4678,VALID,0,VALID,22.7783,VALID,7,VALID,0,
2009-09-01, 03:15:04,VALID,1009.76,VALID,0,VALID,94.4755,VALID,0,VALID,22.7588,VALID,7,VALID,0,
2009-09-01, 03:16:04,VALID,1009.76,VALID,0,VALID,94.4602,VALID,0,VALID,22.7394,VALID,7,VALID,0,
2009-09-01, 03:17:04,VALID,1009.78,VALID,0,VALID,94.4602,VALID,0,VALID,22.7199,VALID,7,VALID,0,
2009-09-01, 03:18:04,VALID,1009.76,VALID,0,VALID,94.4831,VALID,0,VALID,22.7199,VALID,7,VALID,0,
2009-09-01, 03:19:04,VALID,1009.74,VALID,0,VALID,94.4373,VALID,0,VALID,22.7394,VALID,7,VALID,0,
2009-09-01, 03:20:04,VALID,1009.73,VALID,0,VALID,94.4678,VALID,0,VALID,22.7783,VALID,7,VALID,0,
2009-09-01, 03:21:04,VALID,1009.73,VALID,0,VALID,94.4602,VALID,0,VALID,22.7978,VALID,7,VALID,0,
2009-09-01, 03:22:04,VALID,1009.73,VALID,0,VALID,94.4526,VALID,0,VALID,22.7978,VALID,7,VALID,0,
2009-09-01, 03:23:04,VALID,1009.71,VALID,0,VALID,94.4678,VALID,0,VALID,22.8173,VALID,7,VALID,0,
2009-09-01, 03:24:04,VALID,1009.75,VALID,0,VALID,94.4526,VALID,0,VALID,22.8385,VALID,7,VALID,0,
2009-09-01, 03:25:04,VALID,1009.73,VALID,0,VALID,94.4755,VALID,0,VALID,22.8173,VALID,7,VALID,0,
2009-09-01, 03:26:04,VALID,1009.76,VALID,0,VALID,94.4602,VALID,0.105969,VALID,22.8173,VALID,7,VALID,0,
2009-09-01, 03:27:04,VALID,1009.78,VALID,0,VALID,94.4678,VALID,0,VALID,22.7978,VALID,7,VALID,0,
2009-09-01, 03:28:04,VALID,1009.79,VALID,0,VALID,94.4678,VALID,0,VALID,22.8368,VALID,7,VALID,0,
2009-09-01, 03:29:04,VALID,1009.76,VALID,0,VALID,94.4526,VALID,0,VALID,22.8368,VALID,7,VALID,0,
2009-09-01, 03:30:04,VALID,1009.78,VALID,0,VALID,94.4755,VALID,0,VALID,22.8368,VALID,7,VALID,0,
2009-09-01, 03:31:04,VALID,1009.76,VALID,0,VALID,94.4678,VALID,0,VALID,22.8368,VALID,7,VALID,0,
2009-09-01, 03:32:04,VALID,1009.74,VALID,0,VALID,94.4526,VALID,0,VALID,22.8562,VALID,7,VALID,0,
2009-09-01, 03:33:04,VALID,1009.73,VALID,0,VALID,94.4678,VALID,0,VALID,22.8562,VALID,7,VALID,0,
2009-09-01, 03:34:04,VALID,1009.72,VALID,0,VALID,94.4755,VALID,0,VALID,22.8368,VALID,7,VALID,0,
2009-09-01, 03:35:04,VALID,1009.7,VALID,0,VALID,94.4678,VALID,0.105969,VALID,22.858,VALID,7,VALID,0,
2009-09-01, 03:36:04,VALID,1009.68,VALID,0,VALID,94.4831,VALID,0,VALID,22.7978,VALID,7,VALID,0,
2009-09-01, 03:37:04,VALID,1009.7,VALID,0,VALID,94.4755,VALID,0,VALID,22.7783,VALID,7,VALID,0,
2009-09-01, 03:38:04,VALID,1009.7,VALID,0,VALID,94.4755,VALID,0,VALID,22.7394,VALID,7,VALID,0,
2009-09-01, 03:39:04,VALID,1009.72,VALID,0,VALID,94.4907,VALID,0,VALID,22.7004,VALID,7,VALID,0,
2009-09-01, 03:40:04,VALID,1009.71,VALID,0,VALID,94.4831,VALID,0.105969,VALID,22.6402,VALID,7,VALID,0,
2009-09-01, 03:41:04,VALID,1009.7,VALID,0,VALID,94.4755,VALID,0,VALID,22.6225,VALID,7,VALID,0,
2009-09-01, 03:42:04,VALID,1009.71,VALID,0,VALID,94.445,VALID,0,VALID,22.603,VALID,7,VALID,0,
2009-09-01, 03:43:04,VALID,1009.72,VALID,0,VALID,94.4373,VALID,0.105969,VALID,22.642,VALID,7,VALID,0,
2009-09-01, 03:44:04,VALID,1009.75,VALID,0,VALID,94.4297,VALID,0,VALID,22.6614,VALID,7,VALID,0,
2009-09-01, 03:45:04,VALID,1009.75,VALID,0,VALID,94.4297,VALID,0,VALID,22.7004,VALID,51,VALID,0,
2009-09-01, 03:46:04,VALID,1009.76,VALID,0,VALID,94.4221,VALID,0,VALID,22.7199,VALID,51,VALID,0,
2009-09-01, 03:47:04,VALID,1009.79,VALID,0,VALID,94.4297,VALID,0,VALID,22.7588,VALID,79,VALID,0.525,
2009-09-01, 03:48:04,VALID,1009.79,VALID,0,VALID,94.4221,VALID,0,VALID,22.7783,VALID,84,VALID,1.03828,
2009-09-01, 03:49:04,VALID,1009.76,VALID,0,VALID,94.3687,VALID,0,VALID,22.8952,VALID,100,VALID,1.03477,
2009-09-01, 03:50:04,VALID,1009.8,VALID,0,VALID,94.4297,VALID,0,VALID,22.8757,VALID,67,VALID,0.633203,
2009-09-01, 03:51:04,VALID,1009.78,VALID,0,VALID,94.4602,VALID,0,VALID,22.8952,VALID,63,VALID,0.725781,
2009-09-01, 03:52:04,VALID,1009.8,VALID,0,VALID,94.445,VALID,0,VALID,22.8952,VALID,46,VALID,0.926172,
2009-09-01, 03:53:04,VALID,1009.8,VALID,0,VALID,94.4678,VALID,0.105969,VALID,22.8952,VALID,23,VALID,0.466016,
2009-09-01, 03:54:04,VALID,1009.78,VALID,0,VALID,94.4678,VALID,0,VALID,22.8952,VALID,28,VALID,0.339453,
2009-09-01, 03:55:04,VALID,1009.77,VALID,0,VALID,94.4526,VALID,0,VALID,22.8545,VALID,28,VALID,0.246875,
2009-09-01, 03:56:04,VALID,1009.75,VALID,0,VALID,94.4678,VALID,0,VALID,22.8562,VALID,13,VALID,0.49375,